Location: *
(48.8780°N, 19.2358°E)
Time: 05:04:25
(UTC+00:00)

MOS 1 - Pass Details

Date: 18 October 2019
Orbit: 878 x 891 km, 99.2° (Epoch: 11 November)

Event Time Altitude Azimuth Distance (km) Brightness Sun altitude
Exits shadow 17:42:55 17° 150° (SSE) 2,069 5.9 -19.5°
Maximum altitude 17:47:18 70° 71° (ENE) 940 4.2 -20.3°
Drops below altitude 10° 17:52:56 10° 349° (NNW) 2,548 6.9 -21.2°
Sets 17:55:20 0° 347° (NNW) 3,490 7.7 -21.6°
